EW2804 Weather Reports


time (UTC)temp
C
wind
direction
speed
KPH
gust
KPH
rain 1hr
cm
rain 24hr
cm
rain mn
cm
humidity
%
barometer
mb
20260906055031 27 128 0.0 0.0 0.00 0.00 0.00 69 1010.4
20260906053955 27 128 0.0 0.0 0.00 0.00 0.00 69 1010.4
20260906052925 27 128 0.0 0.0 0.00 0.00 0.00 67 1010.5
20260906051929 28 128 0.0 0.0 0.00 0.00 0.00 66 1010.7
20260906044655 29 128 0.0 0.0 0.00 0.00 0.00 61 1010.4
20260906043625 30 128 0.0 0.0 0.00 0.00 0.00 60 1010.3
20260906042558 30 128 0.0 0.0 0.00 0.00 0.00 59 1010.4
20260906041603 30 128 0.0 0.0 0.00 0.00 0.00 58 1010.2
20260906040547 30 128 0.0 0.0 0.00 0.00 0.00 57 1010.2
20260906035534 30 128 0.0 1.6 0.00 0.00 0.00 57 1010.2
20260906034550 31 128 0.0 0.0 0.00 0.00 0.00 56 1010.3
20260906033559 31 128 0.0 3.2 0.00 0.00 0.00 55 1010.3
20260906032554 31 128 0.0 4.8 0.00 0.00 0.00 55 1010.4
20260906031548 31 178 1.6 8.0 0.00 0.00 0.00 54 1010.4
20260906030545 31 209 0.0 8.0 0.00 0.00 0.00 54 1010.3
20260906025535 31 123 0.0 8.0 0.00 0.00 0.00 54 1010.2
20260906024531 31 149 1.6 8.0 0.00 0.00 0.00 54 1010.2
20260906023552 32 132 1.6 6.4 0.00 0.00 0.00 53 1010.0
20260906022526 32 167 1.6 9.7 0.00 0.00 0.00 52 1009.7
20260906021526 32 157 1.6 12.9 0.00 0.00 0.00 51 1009.6
20260906020535 33 155 3.2 12.9 0.00 0.00 0.00 49 1009.5
20260906015521 32 123 1.6 11.3 0.00 0.00 0.00 49 1009.3
20260906013337 32 130 0.0 0.0 0.00 0.00 0.00 48 1008.8
20260906010211 33 130 0.0 0.0 0.00 0.00 0.00 45 1008.5
20260906005134 35 130 0.0 0.0 0.00 0.00 0.00 42 1008.4
20260906004138 35 130 0.0 0.0 0.00 0.00 0.00 42 1008.5
20260906003146 36 130 0.0 4.8 0.00 0.00 0.00 41 1008.4
20260906000941 36 93 0.0 1.6 0.00 0.00 0.00 37 1008.5
20260905235949 36 185 1.6 4.8 0.00 0.00 0.00 36 1008.4
20260905233850 37 156 1.6 8.0 0.00 0.00 0.00 35 1008.2
20260905232848 37 160 0.0 8.0 0.00 0.00 0.00 34 1008.2
20260905224523 37 244 1.6 12.9 0.00 0.00 0.00 34 1008.2
20260905223459 37 84 3.2 12.9 0.00 0.00 0.00 34 1008.2
20260905222440 37 119 3.2 11.3 0.00 0.00 0.00 34 1008.2
20260905221446 37 150 3.2 11.3 0.00 0.00 0.00 34 1008.3
20260905220444 38 173 1.6 8.0 0.00 0.00 0.00 34 1008.4
20260905214255 37 137 3.2 11.3 0.00 0.00 0.00 35 1008.6
20260905213230 37 137 3.2 11.3 0.00 0.00 0.00 35 1008.6
20260905212207 37 128 1.6 8.0 0.00 0.00 0.00 35 1008.8
20260905211146 37 119 3.2 9.7 0.00 0.00 0.00 35 1008.8
20260905205036 38 275 1.6 8.0 0.00 0.00 0.00 37 1009.2
20260905204027 38 125 1.6 8.0 0.00 0.00 0.00 35 1009.4
20260905203044 37 157 1.6 9.7 0.00 0.00 0.00 36 1009.4
20260905200901 37 22 3.2 11.3 0.00 0.00 0.00 37 1009.8
20260905195920 36 227 3.2 11.3 0.00 0.00 0.00 39 1010.0
20260905193753 36 90 3.2 11.3 0.00 0.00 0.00 38 1010.2
20260905192739 36 333 1.6 12.9 0.00 0.00 0.00 38 1010.3
20260905190549 37 200 3.2 8.0 0.00 0.00 0.00 39 1010.7
20260905185534 36 161 1.6 9.7 0.00 0.00 0.00 40 1010.9
20260905184551 36 187 3.2 12.9 0.00 0.00 0.00 40 1011.1
20260905182419 36 133 3.2 8.0 0.00 0.00 0.00 40 1011.4
20260905181420 36 196 1.6 11.3 0.00 0.00 0.00 41 1011.5
20260905180401 36 126 1.6 12.9 0.00 0.00 0.00 41 1011.7
20260905175331 35 46 3.2 12.9 0.00 0.00 0.00 44 1011.9
20260905174350 35 201 3.2 8.0 0.00 0.00 0.00 43 1012.0
20260905172233 35 261 3.2 12.9 0.00 0.00 0.00 47 1012.1
20260905171204 35 229 1.6 9.7 0.00 0.00 0.00 46 1012.2
20260905170224 35 219 1.6 8.0 0.00 0.00 0.00 44 1012.3
20260905165230 34 119 1.6 11.3 0.00 0.00 0.00 47 1012.3
20260905164218 33 43 1.6 11.3 0.00 0.00 0.00 46 1012.5
20260905163201 34 144 1.6 6.4 0.00 0.00 0.00 46 1012.4
20260905155902 33 246 0.0 4.8 0.00 0.00 0.00 52 1012.4
20260905154833 32 238 1.6 6.4 0.00 0.00 0.00 53 1012.6
20260905153805 32 286 1.6 6.4 0.00 0.00 0.00 53 1012.6
20260905152820 32 208 1.6 6.4 0.00 0.00 0.00 56 1012.4
20260905151746 31 161 1.6 8.0 0.00 0.00 0.00 58 1012.5
20260905150732 31 232 1.6 8.0 0.00 0.00 0.00 59 1012.4
20260905145741 31 273 1.6 4.8 0.00 0.00 0.00 61 1012.3
20260905144726 30 294 1.6 8.0 0.00 0.00 0.00 62 1012.4
20260905143652 30 147 1.6 8.0 0.00 0.00 0.00 65 1012.4
20260905142622 29 224 1.6 8.0 0.00 0.00 0.00 67 1012.4
20260905141626 28 242 1.6 4.8 0.00 0.00 0.00 69 1012.4
20260905140629 28 244 0.0 4.8 0.00 0.00 0.00 71 1012.3
20260905135616 27 213 0.0 3.2 0.00 0.00 0.00 75 1012.4
20260905132255 25 47 0.0 0.0 0.00 0.00 0.00 84 1012.2
20260905131234 24 22 0.0 0.0 0.00 0.00 0.00 85 1012.1
20260905130212 23 15 0.0 0.0 0.00 0.00 0.00 85 1012.0
20260905125140 23 100 0.0 0.0 0.00 0.00 0.00 84 1011.9
20260905124202 23 100 0.0 0.0 0.00 0.00 0.00 84 1011.8
20260905122109 23 128 0.0 0.0 0.00 0.00 0.00 84 1011.6
20260905115944 23 128 0.0 0.0 0.00 0.00 0.00 83 1011.4
20260905114954 23 128 0.0 0.0 0.00 0.00 0.00 82 1011.4
20260905113938 23 128 0.0 0.0 0.00 0.00 0.00 82 1011.3
20260905112937 23 128 0.0 0.0 0.00 0.00 0.00 82 1011.3
20260905111929 23 128 0.0 0.0 0.00 0.00 0.00 81 1011.2
20260905110918 23 128 0.0 0.0 0.00 0.00 0.00 81 1011.2
20260905104716 24 128 0.0 0.0 0.00 0.00 0.00 80 1011.3
20260905103729 24 128 0.0 0.0 0.00 0.00 0.00 80 1011.3
20260905102723 24 128 0.0 0.0 0.00 0.00 0.00 80 1011.3
20260905095519 25 128 0.0 0.0 0.00 0.00 0.00 78 1011.5
20260905094537 25 128 0.0 0.0 0.00 0.00 0.00 78 1011.3
20260905092412 25 128 0.0 0.0 0.00 0.00 0.00 76 1011.1
20260905091407 25 128 0.0 0.0 0.00 0.00 0.00 76 1011.1
20260905090428 25 128 0.0 0.0 0.00 0.00 0.00 75 1011.0
20260905084340 26 128 0.0 0.0 0.00 0.00 0.00 74 1010.9
20260905083342 26 128 0.0 0.0 0.00 0.00 0.00 73 1010.9
20260905082338 26 128 0.0 0.0 0.00 0.00 0.00 72 1010.9
20260905081332 26 128 0.0 0.0 0.00 0.00 0.00 72 1011.0
20260905080333 26 128 0.0 0.0 0.00 0.00 0.00 71 1010.9
20260905074151 26 128 0.0 0.0 0.00 0.00 0.00 71 1010.9
20260905073157 27 128 0.0 0.0 0.00 0.00 0.00 71 1011.0
20260905072208 27 128 0.0 0.0 0.00 0.00 0.00 68 1011.1
20260905071230 27 128 0.0 0.0 0.00 0.00 0.00 68 1011.2
20260905070211 27 128 0.0 0.0 0.00 0.00 0.00 67 1011.2
20260905065228 27 128 0.0 0.0 0.00 0.00 0.00 66 1011.2
20260905064235 28 128 0.0 0.0 0.00 0.00 0.00 65 1011.2
20260905063218 28 128 0.0 0.0 0.00 0.00 0.00 64 1011.2
20260905062216 29 128 0.0 0.0 0.00 0.00 0.00 63 1011.3
20260905061153 29 128 0.0 0.0 0.00 0.00 0.00 61 1011.3